Precipitable_Water
1.03 1.07 1.17 1.21 1.20 1.24 1.31 1.31 1.31 1.36 1.43 1.46 1.48 1.49 1.37 1.35 1.22 1.12 1.10 1.22 1.27 1.42 1.55 1.50 1.75 1.95 2.03 2.05 2.14 2.16 2.14 2.06 2.02 2.02 2.06 2.10 2.16 2.18 2.14 2.06 2.02 2.01 2.01 2.01 2.01 2.01 1.99 1.96 1.92 1.89 1.88 1.86 1.85 1.83 1.82 1.80 1.79 1.81 1.81 1.80 1.79 1.78 1.78 1.79 1.80 1.81 1.83 1.83 1.84 1.84 1.85 1.88 1.87 1.82
0.87 0.91 0.99 1.13 1.15 1.23 1.28 1.31 1.35 1.39 1.44 1.41 1.38 1.37 1.39 1.44 1.38 1.36 1.15 1.11 1.28 1.30 1.46 1.56 1.59 1.76 1.81 1.93 2.03 2.12 2.18 2.18 2.11 2.04 2.02 2.06 2.09 2.11 2.13 2.08 2.03 2.03 2.05 2.04 2.03 2.02 2.01 1.99 1.96 1.93 1.92 1.91 1.89 1.87 1.84 1.83 1.81 1.82 1.82 1.81 1.78 1.77 1.77 1.78 1.81 1.85 1.85 1.88 1.86 1.86 1.87 1.85 1.81 1.79
1.11 1.02 0.92 0.93 0.96 1.05 1.12 1.17 1.23 1.28 1.29 1.33 1.37 1.35 1.38 1.38 1.36 1.29 1.20 1.00 1.08 1.28 1.24 1.40 1.57 1.62 1.69 1.78 1.87 1.98 2.05 2.09 2.14 2.11 2.03 1.99 2.00 2.04 2.11 2.14 2.06 2.02 2.03 2.04 2.02 2.01 2.02 2.03 2.01 1.98 1.96 1.95 1.93 1.91 1.88 1.85 1.84 1.84 1.83 1.81 1.79 1.77 1.76 1.77 1.80 1.88 1.94 1.88 1.82 1.81 1.81 1.80 1.79 1.79
1.07 1.04 1.01 1.04 1.03 0.98 1.03 1.12 1.19 1.21 1.23 1.25 1.27 1.32 1.32 1.29 1.26 1.18 1.07 0.99 0.93 1.22 1.29 1.35 1.46 1.59 1.64 1.73 1.74 1.84 1.95 2.06 2.08 2.11 2.15 2.13 2.07 2.02 2.04 2.11 2.10 2.03 2.02 2.03 2.03 2.02 2.01 2.03 2.04 2.02 2.00 1.98 1.96 1.93 1.89 1.87 1.85 1.85 1.84 1.82 1.82 1.81 1.77 1.75 1.76 1.80 1.81 1.76 1.75 1.74 1.73 1.74 1.75 1.76
0.99 1.00 1.03 1.03 1.06 1.14 1.11 1.12 1.12 1.12 1.15 1.19 1.23 1.30 1.30 1.26 1.27 1.22 1.15 1.01 0.98 1.14 1.37 1.36 1.33 1.44 1.50 1.54 1.72 1.71 1.75 1.83 1.94 2.02 2.07 2.15 2.15 2.10 2.05 2.05 2.06 2.04 2.03 2.03 2.03 2.02 2.00 2.00 2.02 2.04 2.02 1.99 1.97 1.95 1.91 1.87 1.85 1.84 1.84 1.84 1.84 1.84 1.83 1.81 1.77 1.76 1.75 1.74 1.74 1.72 1.71 1.72 1.74 1.77
1.06 1.09 1.04 1.00 0.95 0.91 0.89 0.88 0.86 0.94 1.02 1.02 1.05 1.12 1.16 1.22 1.22 1.32 1.25 1.17 1.12 1.02 1.15 1.20 1.34 1.34 1.41 1.32 1.62 1.60 1.61 1.67 1.77 1.82 1.91 2.01 2.08 2.10 2.09 2.03 2.01 2.05 2.05 2.00 1.97 1.98 1.97 1.98 1.98 2.01 2.02 2.00 1.98 1.95 1.92 1.88 1.85 1.84 1.83 1.84 1.84 1.85 1.85 1.85 1.82 1.77 1.75 1.75 1.73 1.73 1.72 1.73 1.74 1.76
1.03 0.98 0.96 0.98 1.06 1.12 1.10 1.13 1.10 1.08 1.01 0.94 0.87 0.87 0.93 1.00 1.17 1.32 1.33 1.23 1.14 1.16 1.25 1.38 1.31 1.32 1.40 1.37 1.40 1.54 1.63 1.68 1.73 1.72 1.75 1.82 1.93 2.02 2.07 2.08 2.09 2.07 2.05 2.00 1.94 1.95 1.98 1.97 1.98 1.99 2.00 2.01 1.99 1.97 1.94 1.92 1.89 1.85 1.83 1.83 1.84 1.85 1.85 1.85 1.84 1.81 1.78 1.76 1.74 1.73 1.73 1.73 1.73 1.75
1.06 1.09 1.13 1.09 0.98 0.99 1.01 1.05 1.10 1.13 1.13 1.14 1.15 1.09 1.12 1.09 1.04 1.14 1.21 1.35 1.26 1.27 1.25 1.36 1.39 1.40 1.32 1.38 1.47 1.50 1.56 1.63 1.66 1.67 1.73 1.81 1.81 1.90 1.99 2.04 2.06 2.08 2.08 2.05 1.99 1.94 1.95 1.94 1.98 2.00 1.97 1.98 1.99 1.98 1.97 1.96 1.95 1.92 1.89 1.86 1.84 1.85 1.86 1.86 1.85 1.84 1.83 1.81 1.78 1.76 1.76 1.76 1.77 1.78
1.10 1.08 1.06 1.08 1.11 1.12 1.05 0.99 1.00 1.06 1.09 1.13 1.15 1.17 1.18 1.14 1.13 1.16 1.21 1.25 1.29 1.24 1.23 1.28 1.39 1.46 1.48 1.53 1.49 1.48 1.45 1.50 1.54 1.60 1.56 1.57 1.64 1.75 1.87 1.94 1.99 1.99 2.07 2.09 2.05 1.99 1.95 1.97 2.00 2.01 1.95 1.92 1.96 1.97 1.97 1.97 1.97 1.96 1.94 1.91 1.89 1.87 1.86 1.86 1.86 1.86 1.86 1.85 1.82 1.81 1.81 1.82 1.83 1.85
1.07 1.09 1.07 1.06 1.11 1.13 1.10 1.07 1.06 1.05 1.05 1.06 1.09 1.11 1.12 1.15 1.22 1.26 1.24 1.26 1.31 1.35 1.34 1.29 1.19 1.29 1.33 1.43 1.51 1.49 1.50 1.43 1.40 1.40 1.45 1.49 1.51 1.53 1.56 1.65 1.77 1.89 1.93 1.94 2.00 2.02 2.01 2.01 2.04 2.02 1.97 1.92 1.92 1.96 1.97 1.96 1.95 1.95 1.94 1.93 1.91 1.89 1.88 1.87 1.86 1.86 1.86 1.86 1.87 1.87 1.88 1.89 1.90 1.91
0.96 0.99 1.02 1.06 1.10 1.12 1.14 1.15 1.17 1.19 1.17 1.16 1.13 1.11 1.09 1.15 1.17 1.18 1.20 1.22 1.19 1.20 1.19 1.20 1.23 1.23 1.34 1.37 1.31 1.45 1.51 1.50 1.46 1.37 1.34 1.33 1.44 1.50 1.49 1.48 1.63 1.78 1.85 1.92 1.97 2.03 2.09 2.09 2.05 2.03 1.99 1.94 1.91 1.90 1.94 1.96 1.95 1.94 1.94 1.93 1.93 1.92 1.90 1.88 1.86 1.85 1.86 1.88 1.90 1.92 1.94 1.95 1.95 1.94
0.77 0.81 0.88 0.97 1.07 1.13 1.16 1.18 1.22 1.28 1.25 1.26 1.24 1.26 1.25 1.22 1.19 1.18 1.20 1.22 1.22 1.21 1.20 1.16 1.16 1.24 1.27 1.37 1.43 1.42 1.39 1.32 1.34 1.40 1.40 1.32 1.33 1.38 1.48 1.58 1.61 1.67 1.78 1.76 1.81 1.87 1.94 2.03 2.08 2.07 2.03 1.98 1.92 1.90 1.90 1.92 1.94 1.93 1.92 1.93 1.93 1.92 1.91 1.90 1.88 1.87 1.87 1.88 1.91 1.93 1.94 1.95 1.94 1.94
0.82 0.82 0.84 0.85 0.89 0.99 1.09 1.18 1.24 1.26 1.26 1.24 1.20 1.21 1.23 1.22 1.22 1.21 1.21 1.20 1.19 1.20 1.22 1.20 1.26 1.23 1.19 1.22 1.22 1.24 1.25 1.19 1.15 1.29 1.40 1.37 1.44 1.50 1.45 1.52 1.65 1.59 1.57 1.72 1.77 1.69 1.75 1.82 1.91 1.97 1.98 1.98 1.95 1.92 1.89 1.89 1.92 1.92 1.91 1.89 1.89 1.90 1.90 1.89 1.89 1.89 1.88 1.89 1.89 1.90 1.90 1.90 1.91 1.92
0.78 0.79 0.84 0.89 0.90 0.90 0.91 0.96 1.00 1.03 1.07 1.11 1.14 1.15 1.17 1.17 1.15 1.15 1.13 1.12 1.12 1.11 1.10 1.13 1.15 1.15 1.18 1.23 1.26 1.24 1.30 1.38 1.40 1.37 1.38 1.35 1.52 1.51 1.36 1.42 1.57 1.68 1.61 1.56 1.56 1.65 1.77 1.69 1.68 1.83 1.87 1.99 2.04 1.97 1.92 1.87 1.88 1.89 1.89 1.86 1.84 1.85 1.87 1.88 1.87 1.88 1.89 1.90 1.89 1.89 1.88 1.88 1.90 1.92
0.75 0.76 0.81 0.87 0.91 0.94 0.95 0.99 1.02 1.02 1.04 1.06 1.10 1.14 1.17 1.17 1.14 1.09 1.06 1.06 1.09 1.07 1.04 1.05 1.07 1.09 1.12 1.22 1.26 1.29 1.38 1.48 1.47 1.43 1.48 1.46 1.42 1.28 1.22 1.16 1.32 1.61 1.58 1.53 1.54 1.52 1.68 1.74 1.60 1.61 1.68 1.87 2.00 2.02 1.96 1.95 1.95 1.91 1.88 1.86 1.84 1.83 1.83 1.85 1.86 1.86 1.86 1.88 1.89 1.90 1.89 1.90 1.90 1.91
0.78 0.78 0.78 0.81 0.83 0.86 0.92 0.95 0.95 0.98 0.99 1.03 1.06 1.09 1.14 1.17 1.19 1.21 1.14 1.07 1.04 1.05 1.03 1.02 1.05 1.07 1.07 1.11 1.14 1.17 1.27 1.34 1.39 1.43 1.42 1.38 1.38 1.42 1.43 1.30 1.15 1.44 1.63 1.53 1.46 1.43 1.62 1.62 1.49 1.54 1.63 1.70 1.82 1.94 2.02 2.01 1.97 1.95 1.92 1.90 1.88 1.85 1.84 1.83 1.84 1.85 1.85 1.85 1.86 1.88 1.89 1.89 1.89 1.90
0.80 0.80 0.80 0.82 0.85 0.85 0.84 0.89 0.92 0.94 0.94 0.97 1.02 1.03 1.05 1.09 1.14 1.16 1.19 1.21 1.18 1.14 1.09 1.03 0.97 1.00 1.01 0.99 1.02 1.11 1.19 1.34 1.24 1.23 1.26 1.32 1.36 1.43 1.43 1.40 1.36 1.40 1.57 1.47 1.34 1.30 1.55 1.69 1.53 1.39 1.51 1.62 1.64 1.67 1.81 1.93 1.98 1.97 1.91 1.89 1.90 1.88 1.85 1.83 1.82 1.83 1.85 1.85 1.85 1.85 1.86 1.87 1.88 1.88
0.78 0.78 0.80 0.83 0.85 0.90 0.93 0.93 0.90 0.86 0.87 0.91 0.94 0.97 1.00 1.02 1.04 1.08 1.14 1.19 1.22 1.22 1.18 1.14 1.08 1.13 1.16 1.07 1.07 1.10 1.14 1.11 1.14 1.16 1.09 1.15 1.20 1.26 1.30 1.41 1.45 1.56 1.60 1.41 1.35 1.28 1.37 1.52 1.52 1.44 1.48 1.64 1.63 1.55 1.55 1.68 1.85 1.94 1.92 1.86 1.83 1.85 1.84 1.82 1.82 1.84 1.85 1.85 1.85 1.86 1.86 1.86 1.87 1.87
0.78 0.78 0.83 0.87 0.91 0.94 0.97 1.01 1.03 1.05 1.07 1.06 1.05 1.01 0.97 0.96 0.97 0.99 1.02 1.07 1.15 1.19 1.23 1.27 1.30 1.31 1.31 1.32 1.37 1.33 1.25 1.21 1.19 1.25 1.23 1.23 1.28 1.39 1.52 1.54 1.48 1.45 1.58 1.52 1.38 1.09 1.24 1.46 1.41 1.42 1.47 1.48 1.48 1.53 1.59 1.66 1.72 1.83 1.90 1.89 1.86 1.86 1.84 1.79 1.77 1.81 1.86 1.87 1.87 1.88 1.88 1.89 1.89 1.88
0.82 0.87 0.91 0.94 0.96 0.99 1.03 1.06 1.09 1.11 1.12 1.09 1.05 1.01 1.00 1.00 1.02 1.01 1.04 1.06 1.09 1.13 1.18 1.24 1.31 1.38 1.42 1.46 1.48 1.46 1.39 1.37 1.36 1.31 1.26 1.25 1.22 1.26 1.34 1.34 1.28 1.22 1.46 1.57 1.42 1.23 1.21 1.43 1.39 1.42 1.52 1.48 1.38 1.46 1.53 1.60 1.64 1.71 1.82 1.89 1.89 1.88 1.87 1.81 1.74 1.75 1.82 1.86 1.88 1.89 1.92 1.92 1.92 1.91
0.91 0.94 0.96 0.98 0.99 1.02 1.03 1.07 1.10 1.13 1.13 1.08 1.04 1.01 1.01 1.03 1.02 1.01 1.07 1.07 1.04 1.04 1.07 1.12 1.19 1.25 1.31 1.37 1.42 1.43 1.45 1.47 1.47 1.43 1.28 1.18 1.26 1.19 1.08 1.05 1.07 1.13 1.25 1.36 1.48 1.39 1.25 1.39 1.45 1.45 1.53 1.48 1.41 1.42 1.44 1.51 1.56 1.57 1.62 1.74 1.85 1.90 1.91 1.87 1.81 1.78 1.80 1.83 1.86 1.88 1.92 1.92 1.92 1.92
0.92 0.93 0.96 0.99 1.01 1.02 1.06 1.12 1.12 1.12 1.13 1.08 1.05 1.03 1.02 1.00 0.98 1.00 1.07 1.09 1.09 1.08 1.06 1.06 1.08 1.11 1.15 1.22 1.30 1.35 1.37 1.44 1.46 1.36 1.21 1.33 1.39 1.19 1.10 1.01 1.11 1.34 1.39 1.28 1.38 1.32 1.25 1.36 1.42 1.35 1.41 1.48 1.48 1.41 1.40 1.44 1.48 1.53 1.55 1.59 1.70 1.85 1.95 1.96 1.91 1.85 1.82 1.82 1.84 1.86 1.89 1.91 1.91 1.90
0.97 0.97 0.98 0.98 1.01 1.04 1.07 1.08 1.10 1.10 1.10 1.07 1.05 1.04 1.01 0.98 0.97 1.01 1.08 1.07 1.06 1.07 1.06 1.05 1.04 1.03 1.05 1.09 1.13 1.19 1.24 1.30 1.36 1.36 1.29 1.35 1.33 1.18 1.11 1.09 1.09 1.06 1.09 1.16 1.24 1.06 1.06 1.14 1.30 1.29 1.15 1.06 1.22 1.37 1.37 1.39 1.43 1.47 1.50 1.53 1.57 1.67 1.83 1.96 1.97 1.91 1.84 1.83 1.85 1.88 1.90 1.90 1.89 1.87
1.02 1.03 1.03 1.03 1.05 1.05 1.06 1.08 1.10 1.10 1.12 1.09 1.08 1.06 1.02 1.00 0.99 1.13 1.13 1.14 1.14 1.11 1.09 1.06 1.04 0.97 0.94 0.93 0.95 1.00 1.08 1.19 1.30 1.33 1.33 1.30 1.25 1.13 1.07 1.06 1.05 0.94 0.91 1.05 1.16 1.02 1.01 1.06 1.08 1.22 1.07 0.90 0.84 1.07 1.24 1.29 1.40 1.45 1.49 1.51 1.47 1.50 1.59 1.73 1.87 1.93 1.91 1.87 1.87 1.90 1.92 1.91 1.89 1.86
1.02 1.03 1.05 1.08 1.13 1.11 1.10 1.08 1.06 1.05 1.05 1.05 1.03 1.01 0.97 0.98 1.03 1.07 1.04 1.06 1.11 1.10 1.09 1.08 1.06 1.03 0.98 0.92 0.88 0.87 0.92 1.03 1.16 1.25 1.28 1.31 1.34 1.32 1.22 1.09 1.01 0.97 1.02 1.10 1.14 1.09 1.01 1.08 1.04 1.11 1.10 1.08 1.02 0.99 1.12 1.24 1.36 1.42 1.47 1.50 1.49 1.56 1.53 1.53 1.65 1.80 1.92 1.95 1.94 1.94 1.93 1.94 1.93 1.89
1.06 1.08 1.10 1.12 1.16 1.16 1.14 1.12 1.09 1.06 1.05 1.05 1.05 1.03 1.02 1.00 0.98 0.97 1.00 1.01 1.00 1.00 1.03 1.03 1.02 1.01 0.99 0.95 0.90 0.84 0.83 0.90 1.01 1.14 1.23 1.27 1.32 1.40 1.41 1.30 1.13 1.05 1.11 1.32 1.30 1.16 1.06 1.00 1.03 1.04 1.06 1.02 1.01 1.06 1.03 1.13 1.28 1.38 1.50 1.56 1.51 1.50 1.49 1.48 1.50 1.55 1.69 1.84 1.91 1.93 1.94 1.94 1.95 1.96
1.12 1.16 1.16 1.17 1.17 1.15 1.13 1.11 1.09 1.09 1.10 1.09 1.07 1.05 1.03 1.00 0.98 0.96 0.93 0.92 0.93 0.93 0.93 0.96 0.96 0.98 0.99 0.98 0.96 0.92 0.84 0.83 0.89 1.00 1.18 1.28 1.35 1.39 1.42 1.40 1.35 1.32 1.43 1.52 1.55 1.47 1.37 1.22 1.22 1.12 1.06 1.09 1.01 1.00 1.02 1.01 1.13 1.39 1.44 1.50 1.47 1.48 1.50 1.45 1.40 1.45 1.53 1.62 1.75 1.89 1.96 1.97 1.97 2.03
1.15 1.14 1.15 1.15 1.14 1.11 1.09 1.08 1.06 1.05 1.05 1.04 1.04 1.04 1.04 1.04 1.03 1.00 0.95 0.91 0.89 0.88 0.87 0.86 0.87 0.92 0.97 1.00 0.99 0.99 0.99 0.91 0.84 0.84 0.93 1.11 1.26 1.33 1.33 1.35 1.37 1.44 1.53 1.56 1.55 1.53 1.53 1.45 1.36 1.30 1.28 1.21 1.13 1.02 0.93 1.08 1.16 1.23 1.31 1.47 1.47 1.46 1.50 1.49 1.44 1.44 1.49 1.56 1.61 1.69 1.77 1.81 1.90 1.99
1.17 1.16 1.15 1.13 1.11 1.10 1.09 1.08 1.08 1.07 1.07 1.06 1.05 1.04 1.04 1.05 1.04 1.01 0.97 0.92 0.89 0.85 0.83 0.84 0.85 0.88 0.93 0.98 1.02 1.08 1.07 1.05 0.98 0.89 0.87 0.98 1.14 1.26 1.32 1.33 1.37 1.42 1.49 1.53 1.53 1.52 1.52 1.47 1.38 1.37 1.38 1.37 1.27 1.27 1.25 1.11 1.14 1.21 1.31 1.30 1.24 1.35 1.43 1.49 1.49 1.46 1.47 1.50 1.52 1.57 1.64 1.75 1.83 1.94
1.16 1.15 1.15 1.15 1.13 1.11 1.09 1.07 1.06 1.04 1.04 1.05 1.05 1.04 1.03 1.03 1.01 0.99 0.96 0.91 0.88 0.84 0.86 0.88 0.87 0.89 0.93 0.98 1.03 1.09 1.12 1.08 1.01 0.96 0.88 0.83 0.89 1.04 1.11 1.12 1.17 1.27 1.34 1.37 1.37 1.41 1.45 1.45 1.42 1.38 1.35 1.36 1.34 1.25 1.24 1.23 1.20 1.25 1.27 1.26 1.30 1.37 1.42 1.46 1.49 1.56 1.56 1.48 1.48 1.53 1.65 1.77 1.86 1.92
1.19 1.21 1.21 1.20 1.18 1.16 1.14 1.13 1.12 1.10 1.10 1.09 1.09 1.10 1.09 1.07 1.05 1.02 0.99 0.95 0.91 0.88 0.88 0.88 0.91 0.95 1.00 1.06 1.06 1.06 1.09 1.09 1.08 1.05 0.96 0.87 0.82 0.85 0.93 0.95 0.96 0.99 1.07 1.18 1.27 1.35 1.42 1.42 1.38 1.35 1.27 1.28 1.32 1.28 1.27 1.30 1.27 1.27 1.22 1.22 1.21 1.06 1.23 1.38 1.46 1.50 1.60 1.66 1.62 1.59 1.66 1.76 1.82 1.89
1.26 1.25 1.25 1.23 1.21 1.19 1.16 1.14 1.12 1.11 1.11 1.10 1.09 1.08 1.08 1.06 1.04 1.03 1.03 1.03 1.01 0.97 0.96 0.93 0.96 1.01 1.05 1.04 1.06 1.10 1.12 1.13 1.14 1.09 0.99 0.96 0.91 0.89 0.85 0.81 0.81 0.89 0.96 1.05 1.13 1.24 1.35 1.42 1.40 1.37 1.32 1.28 1.22 1.28 1.38 1.38 1.33 1.28 1.15 1.17 1.19 1.21 1.26 1.28 1.37 1.46 1.64 1.66 1.61 1.58 1.58 1.62 1.67 1.77
1.25 1.24 1.21 1.18 1.16 1.13 1.10 1.08 1.08 1.09 1.09 1.08 1.09 1.09 1.08 1.07 1.04 1.03 1.03 1.00 1.01 1.02 1.03 1.01 1.03 1.04 1.06 1.06 1.09 1.13 1.15 1.17 1.16 1.10 1.02 1.00 0.96 0.94 0.88 0.77 0.78 0.85 0.85 0.90 1.02 1.12 1.25 1.35 1.43 1.39 1.34 1.32 1.34 1.37 1.34 1.28 1.33 1.41 1.29 1.17 1.19 1.18 1.21 1.29 1.36 1.42 1.60 1.59 1.53 1.59 1.57 1.60 1.64 1.71
1.18 1.17 1.16 1.16 1.14 1.11 1.09 1.07 1.07 1.07 1.07 1.06 1.07 1.09 1.09 1.08 1.05 1.04 1.06 1.08 1.10 1.14 1.14 1.14 1.14 1.15 1.17 1.15 1.17 1.18 1.19 1.23 1.23 1.14 1.01 0.98 1.01 0.94 0.86 0.79 0.78 0.86 0.92 0.94 1.00 1.05 1.15 1.25 1.34 1.45 1.50 1.47 1.51 1.48 1.45 1.37 1.32 1.34 1.35 1.37 1.34 1.27 1.28 1.28 1.34 1.44 1.52 1.50 1.42 1.36 1.42 1.50 1.56 1.64
1.15 1.14 1.13 1.14 1.14 1.11 1.10 1.09 1.08 1.09 1.08 1.08 1.09 1.09 1.11 1.12 1.11 1.10 1.09 1.10 1.12 1.15 1.19 1.21 1.23 1.26 1.26 1.23 1.23 1.21 1.22 1.24 1.28 1.26 1.16 1.03 0.98 0.93 0.90 0.86 0.85 0.88 0.91 0.93 0.97 1.04 1.10 1.12 1.21 1.28 1.33 1.35 1.37 1.49 1.61 1.52 1.34 1.25 1.28 1.29 1.33 1.30 1.25 1.30 1.33 1.38 1.45 1.53 1.56 1.41 1.41 1.48 1.51 1.59
1.16 1.18 1.15 1.13 1.12 1.11 1.10 1.12 1.13 1.13 1.13 1.13 1.14 1.14 1.13 1.13 1.14 1.13 1.13 1.20 1.24 1.23 1.23 1.25 1.24 1.26 1.27 1.26 1.26 1.27 1.25 1.26 1.27 1.29 1.25 1.15 1.05 1.01 0.97 0.92 0.90 0.92 0.96 0.97 0.99 1.06 1.10 1.12 1.12 1.10 1.08 1.13 1.16 1.14 1.15 1.41 1.42 1.33 1.27 1.29 1.42 1.42 1.38 1.34 1.33 1.36 1.40 1.45 1.51 1.45 1.31 1.26 1.38 1.56
1.15 1.16 1.15 1.13 1.13 1.12 1.11 1.15 1.16 1.16 1.17 1.16 1.15 1.14 1.13 1.13 1.16 1.19 1.24 1.32 1.30 1.28 1.28 1.28 1.28 1.32 1.34 1.35 1.34 1.32 1.29 1.27 1.25 1.28 1.25 1.24 1.20 1.12 1.08 1.12 1.12 1.07 1.01 1.00 1.03 1.07 1.17 1.13 1.15 1.12 1.08 1.13 1.11 1.01 0.99 1.22 1.30 1.44 1.43 1.37 1.40 1.45 1.47 1.43 1.34 1.28 1.33 1.40 1.40 1.38 1.35 1.35 1.33 1.42
1.11 1.13 1.13 1.13 1.14 1.15 1.16 1.17 1.18 1.17 1.16 1.15 1.15 1.16 1.17 1.19 1.22 1.27 1.32 1.31 1.32 1.36 1.33 1.32 1.33 1.34 1.32 1.34 1.32 1.32 1.33 1.31 1.27 1.21 1.20 1.22 1.20 1.17 1.13 1.09 1.08 1.11 1.11 1.13 1.12 1.10 1.21 1.26 1.20 1.19 1.15 1.08 1.05 0.96 0.90 1.08 1.19 1.32 1.44 1.39 1.30 1.35 1.44 1.42 1.38 1.32 1.34 1.45 1.41 1.47 1.55 1.48 1.43 1.51
1.12 1.09 1.11 1.12 1.15 1.15 1.13 1.13 1.14 1.13 1.15 1.16 1.17 1.18 1.20 1.22 1.25 1.28 1.30 1.32 1.34 1.35 1.33 1.32 1.32 1.33 1.32 1.33 1.34 1.34 1.30 1.27 1.24 1.21 1.20 1.17 1.18 1.18 1.16 1.10 1.05 1.08 1.13 1.14 1.15 1.13 1.14 1.09 1.17 1.23 1.22 1.11 0.99 1.00 1.06 1.05 1.08 1.28 1.44 1.47 1.43 1.38 1.40 1.41 1.37 1.40 1.43 1.42 1.43 1.48 1.52 1.64 1.73 1.74
1.13 1.10 1.11 1.13 1.13 1.13 1.12 1.13 1.13 1.15 1.16 1.19 1.22 1.24 1.24 1.25 1.28 1.30 1.33 1.34 1.35 1.37 1.36 1.34 1.35 1.34 1.32 1.32 1.32 1.29 1.26 1.24 1.23 1.22 1.18 1.16 1.17 1.16 1.12 1.09 1.05 1.05 1.10 1.13 1.14 1.14 1.16 1.16 1.19 1.26 1.30 1.29 1.27 1.30 1.28 1.26 1.28 1.30 1.33 1.42 1.46 1.42 1.41 1.45 1.45 1.45 1.47 1.51 1.49 1.43 1.41 1.49 1.45 1.50
1.16 1.10 1.11 1.12 1.12 1.13 1.13 1.15 1.17 1.19 1.22 1.27 1.29 1.30 1.32 1.33 1.34 1.33 1.34 1.35 1.36 1.36 1.36 1.36 1.36 1.34 1.31 1.31 1.32 1.30 1.24 1.22 1.21 1.22 1.20 1.16 1.14 1.12 1.10 1.10 1.09 1.14 1.12 1.06 1.08 1.15 1.19 1.29 1.42 1.48 1.49 1.43 1.41 1.35 1.20 1.09 1.03 1.12 1.25 1.32 1.38 1.42 1.44 1.48 1.47 1.44 1.45 1.53 1.51 1.43 1.41 1.41 1.45 1.49
1.19 1.14 1.13 1.14 1.15 1.18 1.20 1.21 1.23 1.26 1.29 1.32 1.32 1.30 1.30 1.30 1.32 1.34 1.33 1.34 1.35 1.37 1.35 1.34 1.33 1.34 1.35 1.33 1.31 1.30 1.26 1.23 1.22 1.21 1.20 1.18 1.14 1.14 1.13 1.11 1.08 1.13 1.11 1.03 1.05 1.21 1.33 1.45 1.57 1.56 1.45 1.40 1.30 1.15 1.06 1.04 1.04 1.09 1.18 1.26 1.34 1.38 1.38 1.40 1.48 1.53 1.56 1.54 1.46 1.37 1.36 1.38 1.42 1.39
1.23 1.19 1.15 1.16 1.19 1.20 1.22 1.22 1.24 1.25 1.25 1.27 1.27 1.30 1.32 1.31 1.31 1.30 1.30 1.31 1.32 1.34 1.36 1.36 1.36 1.35 1.34 1.34 1.34 1.34 1.30 1.25 1.22 1.20 1.19 1.17 1.14 1.10 1.08 1.09 1.12 1.15 1.15 1.13 1.23 1.34 1.38 1.40 1.47 1.45 1.43 1.39 1.37 1.31 1.16 1.16 1.16 1.14 1.15 1.19 1.22 1.26 1.29 1.35 1.40 1.47 1.54 1.59 1.57 1.50 1.45 1.42 1.35 1.25
1.25 1.22 1.20 1.20 1.20 1.21 1.22 1.22 1.23 1.24 1.26 1.30 1.35 1.37 1.37 1.30 1.27 1.30 1.35 1.38 1.38 1.36 1.38 1.37 1.37 1.35 1.35 1.36 1.33 1.33 1.32 1.29 1.27 1.24 1.20 1.19 1.18 1.16 1.13 1.14 1.18 1.21 1.22 1.19 1.20 1.19 1.31 1.33 1.32 1.37 1.33 1.28 1.30 1.27 1.22 1.22 1.17 1.18 1.18 1.20 1.22 1.22 1.23 1.29 1.34 1.40 1.45 1.52 1.55 1.56 1.58 1.57 1.56 1.57
1.27 1.25 1.22 1.21 1.20 1.21 1.22 1.24 1.25 1.28 1.32 1.35 1.34 1.32 1.33 1.36 1.37 1.41 1.44 1.44 1.43 1.43 1.42 1.40 1.39 1.38 1.38 1.36 1.34 1.29 1.30 1.32 1.28 1.26 1.27 1.24 1.22 1.23 1.23 1.22 1.21 1.18 1.14 1.14 1.14 1.20 1.29 1.30 1.32 1.38 1.33 1.27 1.27 1.25 1.25 1.27 1.24 1.22 1.21 1.21 1.20 1.21 1.22 1.24 1.24 1.24 1.29 1.36 1.47 1.53 1.56 1.59 1.60 1.63
Wind_Speed
19 19 18 18 18 18 17 17 17 17 17 17 17 17 17 16 16 16 16 16 16 16 16 16 17 18 19 20 22 23 24 25 25 25 24 24 24 24 24 24 24 24 23 23 23 24 24 23 23 23 23 23 23 22 22 22 21 21 21 21 21 20 20 20 20 20 19 19 19 18 18 18 17 17
20 20 20 20 20 19 19 19 18 18 18 18 18 19 18 18 17 17 18 18 17 17 17 17 17 18 18 19 21 22 23 25 25 25 25 25 25 24 24 24 24 24 24 24 23 24 24 24 23 23 23 23 23 23 23 22 22 21 21 21 20 20 20 20 20 19 19 19 19 18 18 18 17 17
20 21 21 21 21 21 21 20 20 20 20 20 20 20 20 20 20 20 19 19 19 19 18 18 18 19 19 19 20 21 22 23 24 25 25 25 25 25 25 24 24 24 24 24 24 24 24 24 23 23 23 23 23 23 23 23 22 22 21 21 20 20 20 20 20 19 19 19 19 18 18 18 17 17
21 22 22 22 22 22 22 21 21 21 21 22 22 22 22 21 22 22 21 21 21 21 20 20 20 20 20 20 20 21 21 22 23 24 25 26 26 26 26 25 25 25 25 25 25 24 24 24 24 23 23 23 23 23 23 23 23 22 22 21 21 20 20 20 20 19 19 19 19 19 18 18 18 18
22 22 22 23 23 23 23 23 22 23 23 23 23 23 23 23 23 23 22 22 22 22 22 22 21 21 21 20 21 21 22 22 23 24 25 26 26 27 27 27 27 27 26 26 26 26 25 25 25 24 24 24 23 23 23 23 23 23 22 22 21 21 20 20 20 20 20 20 19 19 19 19 19 18
23 23 23 23 23 24 24 24 24 24 24 24 24 24 24 24 24 24 24 23 23 23 23 23 22 22 22 21 21 22 22 22 23 23 24 25 26 27 28 28 28 28 27 27 27 27 26 26 26 25 25 24 24 24 23 23 23 23 23 23 22 21 21 21 21 21 21 20 20 20 20 20 20 19
23 24 24 24 24 24 25 25 25 25 25 25 25 26 25 25 25 24 24 24 24 24 24 24 23 23 23 22 22 22 22 22 23 23 24 24 25 26 27 28 28 29 29 29 28 28 27 27 27 26 26 25 25 24 24 24 23 23 23 23 23 22 22 22 22 22 22 21 21 21 21 21 20 20
24 24 25 24 24 25 25 26 26 26 26 26 26 26 26 26 26 26 26 26 26 26 26 25 24 24 24 24 23 23 23 23 23 24 24 24 25 26 27 28 28 29 30 30 29 29 28 28 28 27 26 26 26 25 25 24 24 24 24 24 24 23 23 23 22 22 22 22 22 22 22 21 21 21
25 25 26 26 26 26 26 27 27 27 27 27 27 27 27 27 27 27 27 27 26 26 26 26 26 25 25 25 24 24 24 24 24 24 24 24 25 25 26 27 28 29 29 30 30 30 30 30 29 28 28 27 27 27 26 26 25 25 24 24 24 24 24 24 24 23 23 23 23 23 23 22 22 22
26 26 27 27 27 27 27 28 28 28 29 29 29 29 29 28 28 28 28 27 27 26 26 26 27 26 26 26 26 25 25 25 25 24 24 24 24 25 25 26 27 28 29 30 31 31 31 31 30 30 29 29 28 28 27 27 26 26 25 25 25 25 25 24 24 24 24 24 24 24 23 23 23 22
27 27 27 28 28 28 28 28 28 29 29 29 29 29 29 29 29 29 29 29 28 28 28 27 27 27 27 27 26 26 26 26 26 25 25 25 25 25 25 26 26 26 27 29 30 31 31 31 31 31 31 30 30 29 29 28 28 27 27 26 26 25 25 25 25 25 25 25 24 24 24 23 23 23
28 28 28 28 28 28 28 29 29 29 29 29 29 29 29 29 30 29 29 29 30 29 29 29 28 28 27 27 27 26 26 27 27 27 27 26 26 26 26 26 25 25 26 26 28 29 30 31 32 32 32 32 31 31 30 30 29 29 28 28 27 27 26 26 26 26 25 25 25 25 24 24 23 23
29 28 28 29 29 29 30 30 30 30 30 30 30 30 30 31 31 30 30 30 30 30 30 30 29 29 29 28 28 27 27 27 28 28 28 27 27 26 26 26 25 25 26 26 26 27 28 30 31 32 32 32 32 31 31 30 30 30 30 29 29 28 28 27 27 27 26 26 26 25 25 25 24 24
29 29 29 29 30 30 31 31 31 31 31 31 31 31 31 31 31 32 31 31 31 31 31 31 31 30 30 30 29 28 28 28 28 28 27 27 27 27 27 27 27 26 26 26 26 26 27 28 30 31 32 32 32 32 32 31 31 31 31 31 30 30 29 29 28 28 27 27 27 26 26 25 25 24
30 30 30 30 30 30 30 30 31 31 31 31 31 31 31 32 32 32 32 32 32 32 32 32 31 31 31 31 30 30 29 29 29 28 28 27 27 27 27 27 27 26 26 26 26 26 26 27 28 29 30 31 32 32 32 32 33 33 32 32 32 31 30 30 30 29 29 28 28 27 27 26 26 25
31 31 31 31 31 31 31 31 31 31 31 31 31 31 31 32 32 32 32 32 32 33 33 33 32 32 32 32 32 31 31 30 30 30 29 29 28 28 28 27 27 27 27 26 27 27 26 27 27 28 29 30 32 33 34 34 34 34 34 33 33 32 32 31 31 30 30 29 29 28 28 27 27 26
31 32 32 32 31 31 31 31 31 31 31 31 32 32 32 31 31 31 32 32 32 33 33 34 34 33 33 33 33 33 32 32 32 31 31 30 30 30 29 29 28 28 28 28 28 27 27 26 27 27 28 29 30 32 34 35 36 35 35 35 34 33 33 33 32 31 31 31 30 30 29 28 28 28
32 32 32 32 31 31 31 31 31 31 32 32 32 32 32 32 32 32 32 32 32 32 32 33 33 33 33 34 34 34 34 34 33 33 32 32 32 32 31 31 30 29 29 29 29 28 28 27 27 27 27 28 28 30 32 34 36 36 37 36 35 34 34 34 33 32 32 32 31 31 30 30 29 29
33 33 32 32 32 32 32 32 32 33 33 33 33 33 33 33 32 32 32 32 32 32 32 33 33 33 33 33 33 33 34 34 34 34 33 33 33 33 32 32 31 30 30 30 30 29 29 29 29 28 28 28 28 28 29 31 33 35 36 37 37 36 35 34 34 34 33 33 32 32 31 31 30 29
33 33 32 33 33 33 33 33 33 33 33 33 33 33 33 33 33 33 33 33 33 33 34 34 34 34 34 34 34 33 33 34 34 34 34 33 33 33 33 32 32 32 32 31 31 31 30 29 29 28 28 28 28 28 28 29 31 33 35 36 37 37 37 36 35 35 35 34 33 32 32 32 31 30
33 33 33 33 33 33 33 33 32 32 32 32 32 33 33 33 34 33 33 34 34 35 35 35 35 35 35 35 35 34 34 34 34 35 35 34 34 34 34 33 32 33 32 32 31 31 30 30 30 29 28 28 28 28 28 29 30 31 33 35 36 37 37 37 36 36 36 35 34 33 33 32 31 30
33 33 33 33 33 33 32 31 31 31 32 32 32 33 33 33 33 33 33 33 34 34 35 35 35 35 35 35 35 35 35 35 35 36 36 35 35 35 34 34 33 32 32 32 32 32 31 30 30 30 29 29 29 29 29 29 30 30 31 32 34 35 37 37 37 37 36 36 36 35 34 33 32 30
32 32 33 33 32 31 31 30 30 31 31 32 32 33 33 34 34 34 33 34 34 34 34 35 35 35 36 36 36 36 36 35 35 36 36 36 36 37 36 35 34 33 33 33 33 33 33 32 32 31 30 29 29 29 29 29 29 30 30 30 32 34 35 37 37 37 37 36 36 35 35 34 32 31
32 32 32 32 31 31 31 31 31 31 31 32 33 33 33 34 34 34 35 35 35 35 35 35 36 36 36 37 37 37 37 36 36 36 36 36 37 37 37 37 36 35 34 33 33 34 33 33 33 32 31 30 29 28 28 29 29 29 29 29 30 31 33 35 36 37 37 37 36 36 35 35 34 33
33 32 32 32 32 31 32 32 32 33 33 33 34 34 34 35 35 36 36 37 37 37 36 36 36 36 37 37 37 37 37 37 37 36 36 36 37 37 37 37 37 37 35 34 34 34 34 33 33 32 32 31 30 29 29 29 29 29 28 29 29 30 31 33 34 35 36 37 37 36 36 36 35 34
32 32 32 32 32 32 32 33 33 34 34 35 35 35 36 36 37 37 37 37 37 37 37 37 37 37 36 36 37 37 37 37 37 36 36 36 37 37 36 36 37 36 35 34 34 34 34 34 33 33 32 31 31 30 30 29 29 29 29 29 29 29 30 31 33 34 35 36 36 37 37 37 37 36
32 32 32 32 32 32 33 34 34 35 35 35 36 36 37 38 38 38 37 37 37 37 37 37 36 36 36 36 36 37 37 37 38 37 37 37 37 37 37 36 37 36 35 34 34 34 34 34 33 33 32 32 31 30 30 29 29 28 28 29 29 29 30 30 31 32 34 35 36 37 37 38 38 37
32 32 32 33 33 34 35 35 35 36 36 36 36 37 37 37 36 36 36 36 36 36 36 36 36 35 35 35 36 36 36 37 38 38 38 38 37 37 36 36 36 36 35 34 34 34 34 34 34 33 33 32 31 30 30 30 29 29 29 29 29 29 29 30 30 31 32 34 35 36 37 37 37 37
34 34 35 35 35 35 36 36 36 36 36 36 36 36 36 36 36 35 35 35 35 35 34 34 34 35 34 34 34 34 35 36 37 37 38 38 38 37 36 36 36 36 35 35 35 34 35 35 35 34 33 33 33 32 31 30 30 30 30 29 29 29 30 30 30 30 31 32 33 35 36 37 37 38
34 34 34 34 35 35 35 35 35 35 36 36 36 36 35 35 34 34 33 33 33 33 33 32 33 33 33 33 33 33 33 34 35 36 37 37 38 37 36 36 36 36 36 36 36 35 35 35 35 34 34 34 33 33 32 31 31 31 31 30 30 30 30 30 30 30 30 31 32 34 35 36 37 38
32 32 32 33 33 33 33 33 33 33 33 33 32 32 31 31 31 31 31 30 30 30 31 31 31 32 31 31 31 31 31 32 33 34 35 36 37 37 36 36 36 36 36 36 36 36 36 36 35 35 35 34 34 33 33 32 32 31 31 31 30 30 29 30 30 31 31 30 31 32 33 34 36 37
31 31 32 31 31 31 31 31 31 30 30 29 29 28 28 28 28 28 29 29 28 29 29 30 30 30 30 30 30 30 30 30 31 32 33 35 35 35 35 35 35 34 35 35 36 36 36 36 35 36 36 35 34 33 32 32 32 32 31 31 31 31 30 30 30 31 31 31 30 31 32 33 34 36
31 31 31 30 30 29 29 29 28 27 27 26 26 26 25 25 25 26 26 27 27 27 28 28 29 29 29 29 29 29 29 29 29 30 32 33 34 34 34 34 34 33 33 33 34 35 35 35 35 35 35 35 34 33 33 32 32 31 31 31 31 31 31 31 31 31 32 31 31 31 32 32 33 35
31 30 30 29 28 27 27 26 25 24 24 23 23 23 23 23 23 24 24 24 25 25 26 27 27 27 28 28 28 28 29 28 28 29 31 32 33 33 33 33 33 33 33 33 33 33 33 34 33 33 33 33 33 33 33 33 32 31 31 30 30 30 30 30 31 31 32 32 32 31 31 32 33 34
30 29 28 27 26 25 24 22 21 21 20 20 20 20 20 20 21 21 21 22 22 23 23 24 25 26 27 27 27 28 28 28 28 28 29 30 31 32 32 32 32 32 32 32 32 32 33 33 33 32 32 32 32 32 33 33 33 32 31 31 30 30 30 30 31 31 31 31 31 31 32 32 32 33
27 26 25 23 22 21 20 19 18 18 18 18 18 18 18 18 18 19 19 19 20 20 21 22 24 25 26 27 27 27 28 28 28 28 28 29 30 30 31 31 31 32 31 31 31 31 32 32 32 32 31 30 30 30 30 31 31 31 31 31 30 30 30 30 30 31 31 32 32 32 32 32 32 32
24 22 20 19 18 18 17 16 16 16 16 16 17 17 17 17 17 18 18 19 20 21 21 22 23 24 25 26 26 27 27 27 28 28 28 28 29 29 30 30 30 30 30 30 30 30 30 31 31 31 30 30 29 29 28 28 28 28 29 30 30 29 29 29 30 30 31 31 32 32 32 32 32 32
22 20 18 17 16 16 16 15 15 16 16 16 16 16 17 17 18 18 18 19 20 21 21 21 22 23 24 24 25 26 26 26 27 27 28 28 28 29 29 29 29 29 29 30 30 30 30 30 30 31 30 30 29 28 27 27 27 26 27 28 28 28 28 29 29 29 29 30 30 31 31 31 31 31
20 19 17 16 15 16 15 15 15 16 16 16 16 16 17 17 18 19 19 19 20 20 20 21 22 22 22 23 24 25 25 26 26 26 27 28 28 28 28 28 28 28 28 29 29 29 29 30 30 31 31 30 29 28 27 26 26 26 26 26 26 26 27 28 28 28 28 28 29 29 29 29 28 28
19 17 16 15 15 15 15 15 15 15 15 15 16 16 17 18 18 19 19 19 20 20 21 21 21 22 22 22 22 23 24 25 25 26 27 27 27 28 27 27 27 27 27 28 28 28 28 29 30 30 30 29 28 27 26 26 26 25 24 24 24 25 25 26 27 27 27 28 28 27 27 27 27 26
17 16 15 15 15 14 14 14 14 14 14 15 16 17 17 17 17 18 19 19 19 20 20 20 20 20 21 21 21 22 22 23 23 24 25 26 26 27 27 26 26 26 26 26 27 27 26 27 28 28 28 27 26 25 25 25 24 24 23 23 22 23 23 24 26 26 26 26 26 26 26 26 26 26
16 15 15 14 14 14 13 13 13 14 14 15 15 16 16 16 17 18 18 18 18 18 19 19 19 19 19 20 20 20 21 21 21 22 23 24 24 25 25 26 26 26 26 26 26 26 25 25 25 25 26 26 25 24 24 24 23 23 22 22 21 21 21 21 22 23 23 24 25 25 25 25 25 25
15 14 14 13 13 13 12 12 13 13 14 14 15 15 16 16 16 17 17 17 17 18 18 18 17 17 18 18 18 19 19 20 20 20 21 22 23 23 24 25 25 25 26 25 25 24 24 24 23 23 23 23 23 23 22 22 22 21 21 20 20 19 19 18 18 19 19 20 21 23 24 25 25 25
14 13 13 12 12 12 12 12 12 12 13 13 14 14 15 15 15 15 16 17 17 17 17 17 17 17 17 17 17 17 17 18 18 19 19 20 21 22 23 23 24 24 24 24 24 24 23 22 22 22 21 21 21 21 21 20 19 19 18 18 18 17 17 17 17 17 17 18 18 19 20 21 22 22
13 12 11 11 10 11 11 11 11 11 11 12 13 13 13 14 14 15 16 17 17 17 17 17 16 16 16 16 16 16 16 17 17 17 18 18 19 20 21 22 22 23 22 22 22 22 21 20 20 20 20 19 19 19 19 18 17 17 16 16 15 15 15 16 15 15 15 15 15 15 16 16 17 18
Wind_Direction
290 289 288 287 285 284 283 282 281 279 278 276 276 276 275 276 277 278 278 277 276 273 270 268 266 264 263 261 257 254 253 253 252 251 251 252 253 254 254 253 252 252 252 251 251 250 251 251 252 252 253 254 254 255 256 255 255 255 254 254 253 252 251 251 250 249 249 249 249 250 251 253 254 254
288 287 287 286 284 283 282 281 280 279 278 276 276 275 274 274 274 276 277 277 276 275 273 270 268 267 266 264 260 257 255 254 252 251 251 251 252 253 253 253 252 252 251 251 251 250 250 251 251 252 253 253 254 255 255 255 254 253 253 253 252 251 250 249 248 247 247 248 248 249 250 251 252 253
287 286 285 285 284 282 281 280 279 278 277 276 276 275 274 272 271 272 275 276 275 274 274 272 270 268 268 266 263 260 257 255 253 252 251 251 252 252 253 253 252 251 251 251 251 250 250 251 251 251 252 253 254 254 254 254 252 252 252 252 251 251 250 248 247 246 246 247 247 247 248 249 250 252
287 285 284 283 282 282 281 280 279 277 276 275 274 274 273 272 271 271 272 273 274 274 273 273 271 269 268 267 263 261 259 257 255 254 253 252 252 252 252 252 252 251 251 251 251 251 251 251 251 251 252 252 253 253 253 253 252 251 251 251 251 250 249 248 247 246 246 245 245 247 248 248 249 251
287 285 284 283 282 282 281 280 279 278 277 275 274 273 272 271 271 271 271 272 273 272 272 272 271 270 268 266 263 262 261 260 258 256 255 254 253 252 252 252 252 251 251 251 251 251 251 251 252 252 252 252 252 252 252 252 251 250 250 250 250 250 249 247 246 245 245 245 246 247 248 248 250 251
286 285 284 283 282 281 280 278 277 277 276 275 275 274 273 272 271 270 270 270 271 271 271 271 270 269 268 266 263 263 263 261 260 258 257 256 255 254 253 252 252 251 250 251 251 251 251 251 251 251 252 252 252 252 251 251 250 249 249 250 250 250 249 248 247 246 245 246 247 248 248 249 251 252
286 285 284 284 282 281 280 279 278 277 276 275 274 274 274 274 273 271 270 269 270 271 271 269 268 268 267 266 264 264 264 263 261 259 259 258 256 255 253 253 252 252 251 251 251 251 251 251 251 251 251 251 251 251 251 250 250 249 249 249 249 249 249 248 247 246 246 246 247 248 249 250 251 252
286 285 284 283 282 281 280 280 279 278 277 276 275 275 274 274 273 273 272 270 269 269 269 269 267 266 266 266 264 263 263 263 261 261 260 259 258 256 255 254 254 253 252 251 250 250 251 251 250 250 250 250 250 250 250 250 249 249 248 248 248 248 248 248 247 247 247 247 248 248 249 250 251 253
287 286 285 283 282 280 279 279 278 277 277 276 276 275 274 274 273 273 272 272 269 268 268 267 267 267 267 266 264 262 262 262 262 262 261 261 260 259 257 256 255 254 253 252 251 251 251 250 250 249 249 249 249 250 249 249 248 248 248 248 248 248 248 247 247 247 247 247 248 249 250 251 252 253
288 286 285 283 282 280 279 278 277 277 276 276 276 275 275 274 274 274 273 273 271 269 268 267 267 267 266 265 264 263 261 261 260 261 262 261 261 260 259 258 256 255 254 253 252 251 250 249 249 249 249 249 249 249 249 248 248 247 247 247 247 247 247 247 247 247 247 248 248 249 250 251 252 254
289 287 285 284 282 281 279 278 277 277 277 276 275 275 274 274 274 273 272 272 272 271 269 268 267 267 266 265 265 264 262 261 260 260 261 261 260 259 259 259 258 257 256 254 252 251 250 250 249 249 249 249 248 248 248 248 248 247 247 247 247 247 247 247 247 247 247 248 249 249 250 251 252 254
290 288 286 284 282 281 279 278 277 277 276 276 275 274 273 273 272 272 270 270 269 269 269 268 267 267 266 266 265 264 263 262 260 260 259 259 260 259 259 259 258 258 258 256 254 252 252 251 250 249 249 249 249 248 248 248 247 247 247 247 247 247 247 247 247 247 247 247 248 249 250 251 252 254
290 288 287 285 283 282 280 279 278 277 275 275 274 274 273 272 271 270 269 268 267 266 266 266 265 265 265 265 264 263 262 261 261 260 260 259 259 258 258 259 259 258 258 257 256 255 254 252 251 250 249 249 249 248 247 247 247 247 247 247 247 247 247 247 247 247 247 248 248 249 250 251 252 253
289 288 287 286 285 283 282 280 279 277 276 275 274 273 272 271 270 269 268 267 266 265 264 263 263 263 263 263 263 263 262 262 261 261 260 259 259 258 258 259 259 258 257 257 257 257 255 254 252 251 250 249 248 248 247 247 247 246 246 246 247 247 247 247 248 248 248 248 249 249 250 250 251 253
289 288 287 286 285 284 282 281 279 278 277 275 274 273 272 270 269 268 267 266 265 264 264 263 262 261 261 262 262 261 261 261 261 260 260 259 259 259 259 258 258 257 256 256 257 258 257 256 255 253 251 249 248 248 248 247 246 246 246 246 246 246 247 247 248 248 248 248 249 249 250 250 251 252
288 288 287 286 284 283 281 280 279 278 277 276 275 274 272 271 269 268 267 266 265 264 264 263 262 261 261 261 261 260 260 260 260 260 259 259 259 259 258 258 257 257 257 256 256 257 258 257 256 254 253 251 249 249 249 248 247 246 246 245 245 246 246 247 248 248 248 249 249 249 250 251 251 252
288 287 287 286 284 283 281 280 279 277 277 276 275 274 273 272 270 269 268 266 265 264 264 263 262 261 261 261 260 259 259 260 260 259 259 258 257 257 257 258 258 257 257 256 256 257 257 257 257 256 255 253 252 251 250 249 248 247 246 245 246 246 246 246 247 247 248 249 249 250 250 251 252 253
288 286 285 284 283 282 281 280 278 277 276 276 275 274 273 272 271 270 269 267 266 265 264 263 262 262 261 261 260 259 259 259 259 259 258 258 257 257 257 258 258 257 256 256 256 256 257 257 257 257 256 255 254 253 251 249 248 247 246 245 246 246 246 245 246 246 247 248 249 249 249 250 251 253
287 286 285 284 282 281 280 279 278 277 277 276 275 274 273 272 271 270 269 268 267 265 264 263 263 262 261 261 261 260 259 258 258 258 258 257 257 257 257 258 257 256 256 256 255 255 256 257 257 257 257 256 256 255 253 250 249 248 246 245 245 246 245 245 245 246 247 247 248 249 249 250 251 252
287 286 284 283 283 282 281 280 279 278 278 277 276 274 273 272 271 270 269 268 267 266 265 264 263 263 262 261 261 260 259 258 258 258 257 256 256 255 256 257 256 256 255 255 254 255 256 256 256 257 256 256 256 255 254 252 251 249 247 246 245 245 244 245 246 246 246 246 247 247 248 249 250 251
287 286 285 284 283 282 281 281 280 279 278 277 276 275 274 273 271 270 269 268 267 266 264 263 263 262 262 261 261 260 259 258 258 257 256 255 255 255 255 256 256 255 255 254 254 254 255 255 255 256 256 256 256 255 255 254 252 251 249 247 246 245 245 245 246 246 245 246 246 246 247 248 249 250
288 287 285 284 283 283 282 282 281 280 279 278 277 276 275 274 273 271 270 269 268 266 265 264 262 261 261 261 260 260 259 258 257 256 256 255 255 255 255 255 255 255 255 254 253 253 254 254 254 255 256 256 256 256 255 254 253 253 251 249 247 246 245 245 245 245 245 245 245 246 246 247 248 249
290 288 287 286 284 283 282 282 281 280 279 278 278 277 276 274 273 272 271 270 269 268 266 265 263 262 261 260 260 259 259 258 257 256 256 255 254 254 255 254 254 254 254 254 253 253 254 254 253 254 255 255 256 256 255 255 254 253 252 251 249 247 246 245 245 244 244 245 245 245 245 245 246 248
291 289 288 287 285 283 282 282 281 280 279 278 277 277 276 274 273 272 271 271 270 269 267 266 265 264 262 261 260 259 258 257 257 257 256 255 254 254 254 254 253 253 254 253 253 253 253 253 253 253 253 254 255 255 255 254 254 253 253 252 251 249 247 247 246 245 244 244 244 244 244 244 244 247
291 290 289 287 285 284 283 282 281 280 279 278 277 276 275 274 273 273 271 270 270 268 267 266 265 264 263 262 260 259 258 257 257 256 256 255 253 253 253 253 253 253 253 253 252 252 252 252 253 253 253 253 254 254 254 253 253 253 252 252 252 251 250 248 247 246 245 244 244 244 243 243 243 245
292 291 290 288 286 285 284 283 282 281 280 279 278 277 276 276 275 273 272 270 269 268 267 266 265 264 263 262 261 259 258 257 256 255 255 254 253 253 253 253 252 252 252 252 251 251 252 252 252 252 253 253 253 254 253 253 252 252 252 252 253 252 252 250 248 247 246 245 244 244 243 242 243 244
293 292 291 289 288 287 285 284 283 282 281 280 279 278 278 276 275 274 272 270 269 267 266 265 265 264 263 262 261 260 258 257 255 254 254 253 253 253 253 253 252 252 252 251 250 250 250 251 251 251 251 252 253 253 252 252 252 252 252 252 253 253 252 252 250 248 247 246 245 244 243 243 243 243
293 293 292 291 289 288 287 286 284 283 281 280 279 279 278 277 276 274 272 271 269 267 265 264 264 264 263 262 261 260 259 257 255 254 253 252 252 252 253 253 252 251 250 250 250 250 250 250 251 250 250 251 251 252 252 251 251 252 252 253 253 253 252 252 251 250 248 247 246 244 244 243 243 243
294 293 292 291 289 288 288 286 285 283 282 280 280 279 279 278 276 274 273 271 269 267 265 264 264 264 263 262 261 261 260 258 256 254 252 251 251 251 252 252 251 250 249 249 249 250 249 249 249 249 249 250 250 251 251 251 251 252 252 253 253 253 253 252 251 251 250 248 247 246 244 244 243 242
295 294 293 291 289 289 288 287 285 284 282 281 280 279 278 277 275 274 272 270 268 265 263 263 264 264 263 262 261 261 260 258 256 254 252 250 249 249 249 250 249 249 249 249 249 249 249 248 248 248 248 249 249 250 251 252 252 252 252 253 253 253 252 251 251 251 250 249 249 247 246 245 243 242
298 297 295 294 292 290 289 288 286 284 283 282 280 279 278 276 275 273 271 269 267 265 263 263 263 263 263 261 260 260 260 258 256 254 252 250 248 248 248 248 249 249 249 249 248 248 248 247 247 246 247 247 248 249 250 250 251 251 252 252 252 252 252 251 250 250 250 249 249 248 246 245 244 244
302 300 299 297 295 292 290 289 287 285 283 282 281 279 277 276 275 273 271 269 267 265 265 264 264 263 261 260 259 260 260 259 258 255 252 249 248 247 246 247 248 249 249 248 248 247 246 246 246 246 246 246 247 248 249 249 250 251 252 252 252 252 252 251 250 250 249 249 249 248 247 246 245 244
303 301 300 298 296 293 291 289 288 285 283 282 281 279 277 276 275 274 272 270 268 266 265 265 264 263 260 259 259 259 260 260 259 256 253 250 247 246 245 246 247 248 248 248 247 246 245 245 245 245 245 245 246 247 248 249 249 250 251 252 252 252 252 252 251 250 248 248 249 248 248 247 246 245
302 301 300 299 297 294 292 290 288 286 285 283 282 280 279 278 277 276 274 273 271 268 266 265 264 263 261 259 259 259 259 259 258 257 254 251 247 246 245 245 246 247 247 247 246 245 244 243 243 244 245 245 245 245 246 247 249 250 250 251 251 252 253 252 251 250 248 248 249 248 248 248 247 247
302 301 300 300 298 296 294 292 290 289 287 286 285 284 282 281 280 278 276 275 274 272 269 266 264 262 261 260 260 260 260 258 257 256 254 251 248 246 245 245 245 246 246 246 245 244 243 242 241 242 243 244 245 245 245 246 248 249 250 250 251 252 253 252 251 250 249 249 248 248 249 249 248 248
305 302 301 300 299 298 297 296 296 294 292 290 289 287 286 285 284 281 278 277 277 277 275 271 267 264 262 261 261 261 261 259 257 255 253 251 248 246 245 245 245 246 245 245 244 243 243 241 239 239 241 243 244 245 246 246 247 248 249 250 251 252 252 252 251 250 249 249 248 249 249 249 248 247
309 305 303 301 300 299 299 299 300 298 296 294 292 291 289 288 287 284 282 282 281 280 278 275 272 268 266 264 263 262 260 258 256 255 253 250 248 246 245 245 245 245 245 244 243 242 241 239 237 237 238 241 242 244 245 245 246 247 249 249 251 252 252 252 251 250 250 250 249 250 250 248 248 247
312 309 305 302 301 301 300 300 299 299 298 297 295 293 292 291 289 288 287 286 285 284 282 279 276 273 270 266 264 262 260 258 256 254 252 249 248 246 245 245 244 244 244 243 242 241 240 238 237 236 237 239 242 244 244 243 244 247 249 250 250 251 252 251 251 250 251 251 250 250 249 249 248 247
314 310 306 303 303 303 302 300 298 298 298 298 297 296 295 294 293 292 291 290 288 287 286 283 279 276 273 269 265 262 260 259 257 254 251 248 247 245 244 244 243 242 242 242 242 241 239 237 236 237 237 238 241 242 242 242 242 245 248 250 251 251 251 251 251 251 250 250 250 249 248 248 247 245
315 312 309 306 305 305 304 302 300 300 299 300 300 300 299 299 297 296 295 293 292 291 290 287 282 278 275 271 267 263 261 259 257 254 251 248 246 244 243 242 241 240 240 241 241 240 238 236 235 236 237 238 239 240 241 241 242 244 248 250 252 252 252 251 251 250 250 249 248 247 246 244 243 241
315 313 311 310 309 308 307 306 305 304 303 304 305 306 305 304 303 301 299 298 296 295 293 290 285 280 275 272 268 266 264 261 257 253 250 248 246 243 240 239 239 239 239 239 239 238 237 236 235 235 236 236 237 237 239 239 241 244 247 250 252 254 253 252 251 250 250 248 246 245 244 242 239 237
316 314 313 313 312 312 311 310 309 308 309 310 311 311 311 311 309 307 304 303 301 300 298 294 289 283 278 274 271 267 264 261 257 253 250 247 244 241 238 237 237 237 237 237 237 236 235 235 236 237 236 234 234 236 237 238 240 242 245 248 250 252 253 253 251 250 249 247 244 242 241 240 238 235
320 318 316 316 315 315 313 313 313 313 313 314 314 314 315 315 314 312 311 309 307 305 302 299 294 287 282 277 273 268 264 260 256 253 250 246 242 240 238 236 235 235 236 235 235 235 235 236 237 238 236 233 233 234 235 236 237 240 243 245 247 248 249 250 250 250 249 247 244 241 239 237 236 234
325 323 320 319 319 319 319 320 320 320 319 320 319 319 319 319 318 318 318 316 313 310 308 304 299 293 287 281 275 269 264 260 256 253 249 245 241 238 236 234 233 232 233 232 231 231 232 234 235 236 234 232 231 231 232 233 234 236 239 241 243 244 245 246 247 247 246 245 242 239 236 234 232 229
331 330 329 328 327 327 328 329 329 329 330 332 331 329 329 327 325 324 324 323 320 317 315 310 305 300 294 287 278 271 264 260 257 252 247 243 240 237 234 232 231 229 229 229 227 226 227 229 231 231 230 228 226 226 227 228 229 231 233 235 238 240 241 242 241 240 240 242 239 233 228 225 221 216